Regional Weather Roundup
Issued by NWS Northern Indiana

Home | Current Version | Previous Version | Text Only | Print | Product List | Glossary Off
Versions: 1 2 3 4 5 6 7 8 9 10 11 12 13 14 15 16 17 18 19 20 21 22 23 24 25 26 27 28 29 30 31 32 33 34 35 36 37 38 39 40 41 42 43 44 45 46 47 48 49 50

000
ASUS43 KIWX 271010
RWRIWX

KIWX WEATHER ROUNDUP
NATIONAL WEATHER SERVICE NORTHERN INDIANA
500 AM EST MON FEB 27 2017

NOTE: "FAIR" INDICATES FEW OR NO CLOUDS BELOW 12,000 FEET WITH NO
SIGNIFICANT WEATHER AND/OR OBSTRUCTIONS TO VISIBILITY.

* THESE STATIONS ARE NOT UNDER NWS QUALITY CONTROL. THEY ALSO MAY NOT
  REPORT WEATHER SUCH AS PRECIPITATION OR FOG.

INZ001>027-271100-
NORTHERN INDIANA

CITY           SKY/WX    TMP DP  RH WIND       PRES   REMARKS
VALPARAISO     CLEAR     30  23  75 SW3       30.14R
MICHIGAN CITY* MOCLDY    34  27  75 SW7       30.13S WCI  28
LAPORTE*       PTCLDY    30  23  75 SW3       30.14S
KNOX*          CLEAR     30   5  34 S6        30.15R WCI  24
SOUTH BEND     PTCLDY    30  22  72 SW7       30.14R WCI  23
GOSHEN         CLEAR     32  22  66 SW8       30.14R WCI  25
MONTICELLO*    CLOUDY    33  23  67 CALM      30.15S
LOGANSPORT*    CLOUDY    30  27  86 S6        30.17R WCI  24
ROCHESTER*     PTCLDY    36  27  69 SW5       30.16R
WARSAW*        CLOUDY    34  21  60 SW3       30.14S
ANGOLA*        MOCLDY    32  25  74 S5        30.14R WCI  27
FORT WAYNE     CLOUDY    32  22  66 SW6       30.16R WCI  26
HUNTINGTON*    CLOUDY    34  22  61 SW3       30.17R
PERU/GRISSOM   CLOUDY    31  25  77 SW7       30.16R WCI  24
MARION*        CLOUDY    35  28  75 SW7       30.18R WCI  30

$$
INZ028>050-271100-
CENTRAL INDIANA

CITY           SKY/WX    TMP DP  RH WIND       PRES   REMARKS
LAFAYETTE      MOCLDY    31  24  75 CALM      30.16R
KOKOMO*        MOCLDY    35  25  66 SW5       30.18R WCI  31
MUNCIE*        CLOUDY    42  26  53 SW6       30.18R
INDIANAPOLIS   CLOUDY    41  33  73 CALM      30.17R

$$
MIZ043>046-050>051-056>058-064>065-071>073-077>080-271100-
SOUTHWEST LOWER MICHIGAN

CITY           SKY/WX    TMP DP  RH WIND       PRES   REMARKS
BATTLE CREEK   CLEAR     32  24  72 SW9       30.11R WCI  24
BENTON HARBOR  PTCLDY    36  26  67 SW12      30.12R
COLDWATER*     CLEAR     34  23  66 SW7       30.13R WCI  27
HILLSDALE*     CLEAR     34  23  64 SW8       30.11R WCI  27
HOLLAND        CLEAR     35  28  75 W6        30.11R WCI  30
GRAND RAPIDS   CLEAR     33  28  81 SW8       30.10R WCI  26
KALAMAZOO      PTCLDY    35  22  58 SW8       30.12R WCI  29
STURGIS*       PTCLDY    30  24  77 SW7       30.13R WCI  23
THREE RIVERS*  FAIR      33  24  68 CALM      30.13R

$$
OHZ001>008-015>018-024>025-271100-
NORTHWEST OHIO

CITY           SKY/WX    TMP DP  RH WIND       PRES   REMARKS
WAUSEON*       FAIR      32  25  74 SW8       30.16R WCI  25
DEFIANCE       CLOUDY    30  21  69 SW3       30.18R
FINDLAY        CLOUDY    33  22  63 S9        30.17R WCI  25
TOLEDO EXPRESS CLOUDY    33  23  66 S6        30.17R WCI  28
TOLEDO METCALF CLOUDY    32  23  69 SW8       30.18R WCI  25
LIMA           MOCLDY    37  22  54 S8        30.18R

$$
AND FOR LAKE MICHIGAN COASTAL AND OPEN LAKE BUOY OBSERVATIONS

STATION/POSITION TEMP    WIND        PRES    VSBY  WAVE
                 AIR SEA DIR/SP/G                  HT/PER
                 (F)     (DEG/KT/KT) (MB)    (MI)  (FT/S)
CALUMET HARBOR    34     210/  6/  8 1019.2F
MICHIGAN CITY     36     190/ 13/ 15   N/A
BURNS HARBOR      38     220/ 12/ 19 1020.7R
SAINT JOSEPH      38     220/ 10/ 13 1020.7

$$
&&




USA.gov is the U.S. government's official web portal to all federal, state and local government web resources and services.